This is the latest recevied weather packets stored in our database for station/object K6CED. If no packets are shown the sender has not sent any weather packets the latest 10 day(s).
| Time | Temp. | Humidity | Pressure | Rain* | Wind** | Luminosity | Snow |
|---|---|---|---|---|---|---|---|
| 1787753559 | 21.67° C | 69% | 1015.2 hPa | 0 mm | - | 42 W/m² | - |
| 1787753257 | 21.11° C | 70% | 1015 hPa | 0 mm | - | 39 W/m² | - |
| 1787752952 | 20.56° C | 71% | 1015.1 hPa | 0 mm | - | 36 W/m² | - |
| 1787752651 | 20.56° C | 71% | 1015.2 hPa | 0 mm | - | 33 W/m² | - |
| 1787752348 | 20.56° C | 71% | 1015.1 hPa | 0 mm | - | 29 W/m² | - |
| 1787752046 | 20.56° C | 71% | 1014.9 hPa | 0 mm | - | 25 W/m² | - |
| 1787751741 | 20.56° C | 71% | 1014.9 hPa | 0 mm | - | 21 W/m² | - |
| 1787751437 | 20.56° C | 72% | 1014.8 hPa | 0 mm | - | 17 W/m² | - |
| 1787751132 | 20.56° C | 72% | 1014.9 hPa | 0 mm | - | 13 W/m² | - |
| 1787750827 | 20.56° C | 72% | 1014.8 hPa | 0 mm | - | 9 W/m² | - |
| 1787750523 | 20.56° C | 71% | 1014.5 hPa | 0 mm | - | 6 W/m² | - |
| 1787750217 | 20.56° C | 72% | 1014.8 hPa | 0 mm | - | 3 W/m² | - |
| 1787749912 | 20.56° C | 75% | 1014.8 hPa | 0 mm | - | 1 W/m² | - |
| 1787749608 | 20° C | 73% | 1014.7 hPa | 0 mm | - | 0 W/m² | - |
| 1787749304 | 20° C | 74% | 1014.5 hPa | 0 mm | - | 0 W/m² | - |
| 1787748999 | 20° C | 74% | 1014.4 hPa | 0 mm | - | 0 W/m² | - |
| 1787748693 | 20° C | 72% | 1014.3 hPa | 0 mm | - | 0 W/m² | - |
| 1787748388 | 20.56° C | 72% | 1014.5 hPa | 0 mm | - | 0 W/m² | - |
| 1787748085 | 20.56° C | 71% | 1014.6 hPa | 0 mm | - | 0 W/m² | - |
| 1787747783 | 20.56° C | 70% | 1014.5 hPa | 0 mm | - | 0 W/m² | - |
| 1787747479 | 20.56° C | 70% | 1014.5 hPa | 0 mm | - | 0 W/m² | - |
| 1787747173 | 20.56° C | 69% | 1014.6 hPa | 0 mm | - | 0 W/m² | - |
| 1787746870 | 21.11° C | 70% | 1014.5 hPa | 0 mm | - | 0 W/m² | - |
| 1787746569 | 20.56° C | 70% | 1014.6 hPa | 0 mm | - | 0 W/m² | - |
| 1787746263 | 20.56° C | 70% | 1014.3 hPa | 0 mm | - | 0 W/m² | - |
* Rain latest hour (hover to see other rain measurements)
** Current wind speed in m/s (hover to see current wind gust speed)